| time (UTC) | temp F | wind direction | speed MPH | gust MPH | rain 1hr in | rain 24hr in | rain mn in | humidity % | barometer mb |
| 20260901080123 | 68 | 331 | 0.0 | 1.0 | 0.00 | 0.00 | 0.00 | 62 | 1022.9 |
| 20260901074612 | 66 | 0 | 0.0 | 1.0 | 0.00 | 0.00 | 0.00 | 65 | 1022.9 |
| 20260901073115 | 63 | 64 | 1.0 | 3.0 | 0.00 | 0.00 | 0.00 | 68 | 1023.0 |
| 20260901071610 | 63 | 35 | 0.0 | 1.0 | 0.00 | 0.00 | 0.00 | 66 | 1023.2 |
| 20260901070107 | 62 | 0 | 0.0 | 1.0 | 0.00 | 0.00 | 0.00 | 68 | 1023.1 |
| 20260901064608 | 59 | 0 | 0.0 | 2.0 | 0.00 | 0.00 | 0.00 | 72 | 1023.0 |
| 20260901063106 | 59 | 0 | 0.0 | 0.0 | 0.00 | 0.00 | 0.00 | 70 | 1023.0 |
| 20260901061607 | 58 | 0 | 0.0 | 0.0 | 0.00 | 0.00 | 0.00 | 72 | 1022.9 |
| 20260901060111 | 57 | 0 | 0.0 | 0.0 | 0.00 | 0.00 | 0.00 | 74 | 1022.8 |
| 20260901054607 | 57 | 0 | 0.0 | 0.0 | 0.00 | 0.00 | 0.00 | 73 | 1022.5 |
| 20260901053124 | 57 | 0 | 0.0 | 0.0 | 0.00 | 0.00 | 0.00 | 73 | 1022.4 |
| 20260901051605 | 57 | 0 | 0.0 | 0.0 | 0.00 | 0.00 | 0.00 | 72 | 1022.4 |
| 20260901044605 | 59 | 0 | 0.0 | 0.0 | 0.00 | 0.00 | 0.00 | 71 | 1022.1 |
| 20260901043130 | 59 | 0 | 0.0 | 0.0 | 0.00 | 0.00 | 0.00 | 70 | 1022.1 |
| 20260901041611 | 59 | 0 | 0.0 | 0.0 | 0.00 | 0.00 | 0.00 | 69 | 1022.0 |
| 20260901040105 | 60 | 0 | 0.0 | 0.0 | 0.00 | 0.00 | 0.00 | 69 | 1022.0 |
| 20260901034608 | 61 | 0 | 0.0 | 1.0 | 0.00 | 0.00 | 0.00 | 68 | 1022.0 |
| 20260901033108 | 61 | 124 | 1.0 | 3.0 | 0.00 | 0.00 | 0.00 | 67 | 1022.1 |
| 20260901031605 | 61 | 0 | 0.0 | 3.0 | 0.00 | 0.00 | 0.00 | 67 | 1022.3 |
| 20260901030104 | 62 | 123 | 1.0 | 2.0 | 0.00 | 0.00 | 0.00 | 66 | 1022.2 |
| 20260901024608 | 62 | 122 | 0.0 | 2.0 | 0.00 | 0.00 | 0.00 | 65 | 1022.3 |
| 20260901023103 | 62 | 108 | 0.0 | 1.0 | 0.00 | 0.00 | 0.00 | 64 | 1022.4 |
| 20260901021609 | 63 | 0 | 0.0 | 2.0 | 0.00 | 0.00 | 0.00 | 64 | 1022.4 |
| 20260901020113 | 63 | 108 | 1.0 | 3.0 | 0.00 | 0.00 | 0.00 | 63 | 1022.3 |
| 20260901014606 | 64 | 0 | 0.0 | 1.0 | 0.00 | 0.00 | 0.00 | 62 | 1022.4 |
| 20260901013103 | 65 | 49 | 1.0 | 3.0 | 0.00 | 0.00 | 0.00 | 61 | 1022.4 |
| 20260901011621 | 65 | 89 | 1.0 | 7.0 | 0.00 | 0.00 | 0.00 | 60 | 1022.3 |
| 20260901010103 | 65 | 103 | 4.0 | 7.0 | 0.00 | 0.00 | 0.00 | 60 | 1022.4 |
| 20260901004605 | 65 | 84 | 1.0 | 6.0 | 0.00 | 0.00 | 0.00 | 60 | 1022.6 |
| 20260901003107 | 65 | 121 | 2.0 | 7.0 | 0.00 | 0.00 | 0.00 | 59 | 1022.6 |
| 20260901001607 | 66 | 59 | 4.0 | 10.0 | 0.00 | 0.00 | 0.00 | 59 | 1022.7 |
| 20260901000114 | 66 | 109 | 6.0 | 10.0 | 0.00 | 0.00 | 0.00 | 58 | 1022.8 |
| 20260831234618 | 66 | 85 | 5.0 | 11.0 | 0.00 | 0.00 | 0.00 | 58 | 1022.8 |
| 20260831233108 | 66 | 52 | 5.0 | 9.0 | 0.00 | 0.00 | 0.00 | 57 | 1022.8 |
| 20260831231610 | 67 | 89 | 6.0 | 10.0 | 0.00 | 0.00 | 0.00 | 57 | 1022.7 |
| 20260831230109 | 67 | 62 | 6.0 | 12.0 | 0.00 | 0.00 | 0.00 | 56 | 1022.6 |
| 20260831224603 | 67 | 41 | 5.0 | 10.0 | 0.00 | 0.00 | 0.00 | 56 | 1022.6 |
| 20260831223111 | 67 | 91 | 6.0 | 10.0 | 0.00 | 0.00 | 0.00 | 55 | 1022.7 |
| 20260831221612 | 68 | 79 | 7.0 | 11.0 | 0.00 | 0.00 | 0.00 | 55 | 1022.7 |
| 20260831220133 | 68 | 85 | 5.0 | 9.0 | 0.00 | 0.00 | 0.00 | 54 | 1022.6 |
| 20260831214606 | 69 | 50 | 6.0 | 11.0 | 0.00 | 0.00 | 0.00 | 53 | 1022.6 |
| 20260831213110 | 69 | 74 | 4.0 | 8.0 | 0.00 | 0.00 | 0.00 | 53 | 1022.7 |
| 20260831211608 | 69 | 68 | 4.0 | 8.0 | 0.00 | 0.00 | 0.00 | 52 | 1022.5 |
| 20260831210106 | 70 | 115 | 4.0 | 7.0 | 0.00 | 0.00 | 0.00 | 52 | 1022.6 |
| 20260831204605 | 70 | 0 | 1.0 | 7.0 | 0.00 | 0.00 | 0.00 | 51 | 1022.5 |
| 20260831203134 | 71 | 82 | 3.0 | 8.0 | 0.00 | 0.00 | 0.00 | 50 | 1022.3 |
| 20260831201606 | 71 | 127 | 5.0 | 11.0 | 0.00 | 0.00 | 0.00 | 49 | 1022.2 |
| 20260831200107 | 72 | 60 | 7.0 | 13.0 | 0.00 | 0.00 | 0.00 | 48 | 1022.0 |
| 20260831194610 | 73 | 74 | 8.0 | 16.0 | 0.00 | 0.00 | 0.00 | 45 | 1021.8 |
| 20260831193106 | 76 | 115 | 2.0 | 6.0 | 0.00 | 0.00 | 0.00 | 34 | 1021.6 |
| 20260831191606 | 78 | 0 | 0.0 | 1.0 | 0.00 | 0.00 | 0.00 | 31 | 1021.4 |
| 20260831190139 | 79 | 243 | 0.0 | 2.0 | 0.00 | 0.00 | 0.00 | 30 | 1021.3 |
| 20260831184610 | 80 | 241 | 1.0 | 5.0 | 0.00 | 0.00 | 0.00 | 29 | 1021.3 |
| 20260831183102 | 82 | 243 | 3.0 | 7.0 | 0.00 | 0.00 | 0.00 | 28 | 1021.2 |
| 20260831181606 | 83 | 267 | 3.0 | 9.0 | 0.00 | 0.00 | 0.00 | 27 | 1021.1 |
| 20260831180107 | 84 | 261 | 7.0 | 13.0 | 0.00 | 0.00 | 0.00 | 27 | 1021.0 |
| 20260831174602 | 84 | 278 | 8.0 | 14.0 | 0.00 | 0.00 | 0.00 | 27 | 1020.9 |
| 20260831173108 | 85 | 253 | 5.0 | 11.0 | 0.00 | 0.00 | 0.00 | 27 | 1021.0 |
| 20260831171607 | 85 | 227 | 7.0 | 14.0 | 0.00 | 0.00 | 0.00 | 26 | 1021.0 |
| 20260831170110 | 86 | 266 | 7.0 | 13.0 | 0.00 | 0.00 | 0.00 | 25 | 1020.9 |
| 20260831164605 | 86 | 271 | 4.0 | 17.0 | 0.00 | 0.00 | 0.00 | 25 | 1020.9 |
| 20260831163106 | 86 | 236 | 7.0 | 17.0 | 0.00 | 0.00 | 0.00 | 25 | 1020.9 |
| 20260831161629 | 85 | 221 | 10.0 | 16.0 | 0.00 | 0.00 | 0.00 | 26 | 1021.0 |
| 20260831160136 | 86 | 248 | 7.0 | 14.0 | 0.00 | 0.00 | 0.00 | 26 | 1021.0 |
| 20260831154631 | 86 | 201 | 6.0 | 14.0 | 0.00 | 0.00 | 0.00 | 26 | 1021.1 |
| 20260831153134 | 86 | 210 | 8.0 | 18.0 | 0.00 | 0.00 | 0.00 | 26 | 1021.1 |
| 20260831151611 | 86 | 233 | 5.0 | 13.0 | 0.00 | 0.00 | 0.00 | 26 | 1021.1 |
| 20260831150107 | 85 | 269 | 2.0 | 15.0 | 0.00 | 0.00 | 0.00 | 26 | 1021.3 |
| 20260831144607 | 85 | 233 | 7.0 | 14.0 | 0.00 | 0.00 | 0.00 | 26 | 1021.3 |
| 20260831143111 | 85 | 271 | 6.0 | 14.0 | 0.00 | 0.00 | 0.00 | 27 | 1021.3 |
| 20260831141604 | 85 | 311 | 7.0 | 16.0 | 0.00 | 0.00 | 0.00 | 26 | 1021.6 |
| 20260831134611 | 85 | 235 | 1.0 | 12.0 | 0.00 | 0.00 | 0.00 | 26 | 1021.9 |
| 20260831133103 | 85 | 257 | 3.0 | 10.0 | 0.00 | 0.00 | 0.00 | 26 | 1021.9 |
| 20260831131607 | 84 | 254 | 5.0 | 14.0 | 0.00 | 0.00 | 0.00 | 28 | 1022.0 |
| 20260831130141 | 84 | 249 | 11.0 | 18.0 | 0.00 | 0.00 | 0.00 | 27 | 1022.0 |
| 20260831124603 | 83 | 226 | 3.0 | 11.0 | 0.00 | 0.00 | 0.00 | 30 | 1022.0 |
| 20260831123119 | 83 | 229 | 6.0 | 17.0 | 0.00 | 0.00 | 0.00 | 29 | 1022.4 |
| 20260831121608 | 83 | 215 | 7.0 | 14.0 | 0.00 | 0.00 | 0.00 | 31 | 1022.4 |
| 20260831120147 | 82 | 236 | 7.0 | 13.0 | 0.00 | 0.00 | 0.00 | 31 | 1022.4 |
| 20260831114607 | 82 | 0 | 5.0 | 11.0 | 0.00 | 0.00 | 0.00 | 34 | 1022.6 |
| 20260831113109 | 81 | 246 | 3.0 | 6.0 | 0.00 | 0.00 | 0.00 | 36 | 1022.7 |
| 20260831111605 | 81 | 232 | 5.0 | 9.0 | 0.00 | 0.00 | 0.00 | 37 | 1022.9 |
| 20260831110110 | 79 | 0 | 0.0 | 6.0 | 0.00 | 0.00 | 0.00 | 41 | 1022.8 |
| 20260831104607 | 78 | 24 | 2.0 | 5.0 | 0.00 | 0.00 | 0.00 | 43 | 1023.0 |
| 20260831103104 | 77 | 247 | 2.0 | 6.0 | 0.00 | 0.00 | 0.00 | 46 | 1023.0 |
| 20260831101621 | 75 | 312 | 3.0 | 6.0 | 0.00 | 0.00 | 0.00 | 47 | 1023.2 |
| 20260831094610 | 73 | 41 | 4.0 | 10.0 | 0.00 | 0.00 | 0.00 | 51 | 1023.4 |
| 20260831093113 | 72 | 52 | 2.0 | 9.0 | 0.00 | 0.00 | 0.00 | 53 | 1023.3 |
| 20260831091605 | 71 | 39 | 6.0 | 11.0 | 0.00 | 0.00 | 0.00 | 54 | 1023.4 |
| 20260831090124 | 70 | 59 | 3.0 | 8.0 | 0.00 | 0.00 | 0.00 | 57 | 1023.3 |
| 20260831084603 | 69 | 47 | 2.0 | 9.0 | 0.00 | 0.00 | 0.00 | 60 | 1023.2 |
| 20260831083104 | 68 | 77 | 4.0 | 9.0 | 0.00 | 0.00 | 0.00 | 61 | 1023.2 |
| 20260831081603 | 67 | 56 | 4.0 | 8.0 | 0.00 | 0.00 | 0.00 | 61 | 1023.2 |